Redmond, OR

12:43 AM PST on December 11, 2019 (GMT -0800)
Roberts Field Airport

Weather History for KRDM - November, 2019

Change the Weather History Date:

Wednesday, November 13, 2019

  Actual Average Record
Temperature  
Mean Temperature 44 °F 38 °F  
Max Temperature 62 °F 50 °F 73 °F (1999)
Min Temperature 26 °F 27 °F -5 °F (1955)
Degree Days  
Heating Degree Days 21 27  
Month to date heating degree days 265 321  
Since 1 July heating degree days 1184 1266  
Cooling Degree Days 0 0  
Month to date cooling degree days 0 0  
Year to date cooling degree days 293 222  
Moisture  
Dew Point 35 °F    
Average Humidity 68    
Maximum Humidity 93    
Minimum Humidity 42    
Precipitation  
Precipitation 0.00 in 0.03 in 1.03 in (1988)
Month to date precipitation 0.00 0.40  
Year to date precipitation 9.27 7.18  
Sea Level Pressure  
Sea Level Pressure 30.12 in    
Wind  
Wind Speed 4 mph (NW)    
Max Wind Speed 16 mph    
Max Gust Speed 19 mph    
Visibility 6 miles    
Events Fog    
T = Trace of Precipitation, MM = Missing Value Source: NWS Daily Summary

Daily Weather History Graph

Daily Weather History Graph

Search for Another Location

Airport or City:

Astronomy

Nov. 13, 2019 Rise Set
Actual Time 6:57 AM PST 4:39 PM PST
Civil Twilight 6:26 AM PST 5:10 PM PST
Nautical Twilight 5:51 AM PST 5:45 PM PST
Astronomical Twilight 5:17 AM PST 6:19 PM PST
Moon 5:45 PM PST (11/13) 7:56 AM PST (11/13)
Length of Visible Light 10h 44m
Length of Day
9h 42m
Full, 98% of the Moon is Illuminated
Nov 13
Full
Nov 19
Last Quarter
Nov 26
New
Dec 3
First Quarter
Dec 11
Full

Hourly Weather History & Observations

Time (PST) Temp. Windchill Dew Point Humidity Pressure Visibility Wind Dir Wind Speed Gust Speed Precip Events Conditions
12:56 AM 37.9 °F 33.5 °F 35.1 °F 89% 30.13 in 10.0 mi South 5.8 mph - N/A   Clear
1:56 AM 35.1 °F - 32.0 °F 89% 30.13 in 10.0 mi Calm Calm - N/A   Clear
2:56 AM 33.1 °F 30.0 °F 30.9 °F 92% 30.14 in 10.0 mi SSE 3.5 mph - N/A   Clear
3:31 AM 30.0 °F - 27.0 °F 88% 30.13 in 0.8 mi Calm Calm - N/A   Clear
3:38 AM 30.9 °F 27.5 °F 28.9 °F 92% 30.13 in 1.0 mi South 3.5 mph - N/A   Clear
3:46 AM 30.9 °F - 28.9 °F 92% 30.13 in 3.0 mi Calm Calm - N/A   Clear
3:56 AM 30.9 °F - 28.9 °F 92% 30.14 in 10.0 mi Calm Calm - N/A   Clear
4:54 AM 28.4 °F - 26.6 °F 93% 30.13 in 1.8 mi Calm Calm - N/A   Clear
4:56 AM 28.9 °F - 26.1 °F 89% 30.15 in 10.0 mi Calm Calm - N/A   Clear
5:56 AM 27.0 °F - 24.1 °F 89% 30.15 in 10.0 mi Calm Calm - N/A   Clear
6:56 AM 30.0 °F - 28.0 °F 92% 30.15 in 10.0 mi Calm Calm - N/A   Clear
7:56 AM 34.0 °F - 30.9 °F 89% 30.16 in 6.0 mi Calm Calm - N/A   Clear
8:56 AM 42.1 °F 40.2 °F 35.1 °F 76% 30.15 in 10.0 mi SE 3.5 mph - N/A   Clear
9:56 AM 48.0 °F - 37.0 °F 66% 30.13 in 10.0 mi Calm Calm - N/A   Clear
10:56 AM 53.1 °F - 39.0 °F 59% 30.12 in 10.0 mi Calm Calm - N/A   Clear
11:56 AM 55.9 °F - 39.0 °F 53% 30.09 in 10.0 mi Calm Calm - N/A   Clear
12:56 PM 60.1 °F - 37.9 °F 44% 30.06 in 10.0 mi Calm Calm - N/A   Clear
1:56 PM 61.0 °F - 37.9 °F 42% 30.04 in 10.0 mi Calm Calm - N/A   Clear
2:56 PM 57.0 °F - 39.9 °F 53% 30.05 in 10.0 mi NNW 12.7 mph - N/A   Clear
3:56 PM 55.0 °F - 41.0 °F 59% 30.06 in 10.0 mi NW 10.4 mph - N/A   Clear
4:56 PM 50.0 °F - 41.0 °F 71% 30.08 in 10.0 mi NW 6.9 mph - N/A   Clear
5:56 PM 45.0 °F 41.2 °F 39.9 °F 82% 30.11 in 10.0 mi NW 6.9 mph - N/A   Clear
6:45 PM 42.1 °F 34.9 °F 37.9 °F 85% 30.07 in 10.0 mi NW 13.8 mph - N/A   Mostly Cloudy
6:56 PM 42.1 °F 35.2 °F 39.0 °F 89% 30.12 in 9.0 mi NW 12.7 mph - N/A   Mostly Cloudy
7:56 PM 41.0 °F 34.3 °F 39.0 °F 93% 30.13 in 6.0 mi WNW 11.5 mph - N/A   Overcast
8:30 PM 41.0 °F 35.2 °F 37.9 °F 89% 30.10 in 2.0 mi NW 9.2 mph - N/A   Overcast
8:39 PM 39.9 °F 35.1 °F 37.9 °F 93% 30.10 in 1.8 mi NW 6.9 mph - N/A   Overcast
8:48 PM 39.9 °F 34.5 °F 37.9 °F 93% 30.10 in 2.0 mi NW 8.1 mph - N/A   Overcast
8:56 PM 39.9 °F 34.5 °F 37.9 °F 93% 30.14 in 1.2 mi NW 8.1 mph - N/A   Overcast
9:17 PM 39.9 °F 33.9 °F 37.9 °F 93% 30.11 in 0.8 mi NW 9.2 mph - N/A   Mist
9:56 PM 39.9 °F 36.7 °F 37.9 °F 93% 30.13 in 0.5 mi NW 4.6 mph - N/A Fog Fog
10:37 PM 39.0 °F 34.8 °F 37.9 °F 96% 30.12 in 1.0 mi NW 5.8 mph - N/A   Mist
10:56 PM 39.9 °F 35.1 °F 37.9 °F 93% 30.13 in 0.8 mi NW 6.9 mph - N/A   Mist
11:09 PM 39.9 °F 35.8 °F 37.9 °F 93% 30.12 in 1.5 mi NW 5.8 mph - N/A   Overcast
11:56 PM 39.0 °F 36.8 °F 37.9 °F 96% 30.13 in 1.0 mi NW 3.5 mph - N/A   Mist